Regional Weather Roundup
Issued by NWS

Home | Current Version | Previous Version | Text Only | Print | Product List | Glossary Off
Versions: 1 2 3 4 5 6 7 8 9 10 11 12 13 14 15 16 17 18 19 20 21 22 23 24 25 26 27 28 29 30 31 32 33 34 35 36 37 38 39 40 41 42 43 44 45 46 47 48 49 50

662
ASUS45 KPSR 220810
RWRAZ

ARIZONA HOURLY REGIONAL WEATHER ROUNDUP
NATIONAL WEATHER SERVICE PHOENIX AZ
100 AM MST MON JAN 22 2018

NOTE: FAIR INDICATES FEW OR NO CLOUDS BELOW 12,000 FEET WITH NO
SIGNIFICANT WEATHER AND/OR OBSTRUCTIONS TO VISIBILITY.

AZZ001>003-036-220900-
NORTHWEST ARIZONA

CITY           SKY/WX    TMP DP  RH WIND       PRES   REMARKS
BULLHEAD CITY  PTCLDY    48  19  32 N8        30.30F
KINGMAN        PTCLDY   N/A N/A N/A E6        30.29F
$$

AZZ004>008-015-016-018-220900-
NORTH CENTRAL ARIZONA

CITY           SKY/WX    TMP DP  RH WIND       PRES   REMARKS
GRAND CANYON   PTCLDY     5   1  83 NE8       30.23S WCI  -8
WILLIAMS       PTCLDY     9   5  85 SE5       30.20F WCI   0
PRESCOTT       CLEAR     24  16  71 SW3       30.26R
FLAGSTAFF      PTCLDY     5   1  83 CALM      30.19F
PAYSON         PTCLDY    23  18  80 CALM      30.22F
PAGE           CLEAR     31  10  41 W3        30.25S
$$

AZZ009>014-017-220900-
NORTHEAST ARIZONA

CITY           SKY/WX    TMP DP  RH WIND       PRES   REMARKS
WINSLOW        PTCLDY    15   5  64 SW5       30.25R WCI   8
SAINT JOHNS    PTCLDY    21  11  65 W8        30.20S WCI  11
WINDOW ROCK    MOCLDY     7   2  80 CALM      30.17R
SHOW LOW       PTCLDY    12   9  85 CALM      30.22S
$$

AZZ540-542>544-546-548-220900-
GREATER PHOENIX AREA

CITY           SKY/WX    TMP DP  RH WIND       PRES   REMARKS
PHOENIX        CLEAR     43  24  47 E7        30.24F
BUCKEYE        PTCLDY    39  14  35 N7        30.26S WCI  34
LUKE AFB       CLEAR     40  21  46 CALM      30.24S
DEER VALLEY    CLEAR     41  24  51 N7        30.25S
SCOTTSDALE     CLEAR     41  25  53 CALM      30.26S
MESA-GATEWAY   CLEAR     37  21  53 E7        30.27S WCI  31
$$

AZZ539-553-220900-
SOUTHWEST MARICOPA COUNTY AND PINAL COUNTY

CITY           SKY/WX    TMP DP  RH WIND       PRES   REMARKS
CASA GRANDE    NOT AVBL
GILA BEND      FAIR      40  13  33 SE9       30.25F WCI  34
$$

AZZ503-504-507>509-220900-
SOUTHEAST ARIZONA

CITY           SKY/WX    TMP DP  RH WIND       PRES   REMARKS
TUCSON         PTCLDY    34  18  52 SE3       30.27S
DAVIS-MONTHAN  PTCLDY    30  17  58 SE8       30.25F WCI  23
NOGALES        CLEAR     27   9  46 CALM      30.23S
SIERRA VISTA   CLEAR     31  10  41 W9        30.23S WCI  23
DOUGLAS        CLEAR     23  11  60 N5        30.24S WCI  17
SAFFORD        CLEAR     37  17  44 N12       30.22S WCI  29
$$

AZZ532-220900-
SOUTHWEST ARIZONA

CITY           SKY/WX    TMP DP  RH WIND       PRES   REMARKS
YUMA           MOCLDY    47  17  30 N6        30.27F
$$

CAZ041-043-047-048-061-525>527-560>570-220900-
SOUTHERN CALIFORNIA

CITY           SKY/WX    TMP DP  RH WIND       PRES   REMARKS
DOWNTOWN L.A.  PTCLDY    51  27  39 CALM      30.27F
L.A. AIRPORT   PTCLDY    51  32  48 E6        30.27F
SAN DIEGO      MOCLDY    51  36  56 CALM      30.28F
BURBANK        PTCLDY    47  30  51 W3        30.26F
ONTARIO        MOCLDY    45  29  53 CALM      30.27F
RIVERSIDE      PTCLDY    45  34  65 NE5       30.27F
PALM SPRINGS   PTCLDY    49  28  44 N6        30.30F
EL CENTRO NAS  PTCLDY    42  11  28 W8        30.29F
IMPERIAL       MOCLDY    43  19  38 W3        30.27F
BLYTHE         PTCLDY    43  15  32 NW9       30.28F
NEEDLES        PTCLDY    48  16  27 NE5       30.30F
$$

NVZ020-UTZ003-220900-
SOUTHERN NEVADA-UTAH

CITY           SKY/WX    TMP DP  RH WIND       PRES   REMARKS
LAS VEGAS      MOCLDY    40  22  48 CALM      30.31F
SALT LAKE CITY PTCLDY    25  17  72 SE6       30.30S WCI  18
$$

NMZ009-TXZ055-220900-
NEW MEXICO-WEST TEXAS

CITY           SKY/WX    TMP DP  RH WIND       PRES   REMARKS
ALBUQUERQUE    PTCLDY    30  10  43 NW10      30.11R WCI  21
EL PASO        CLEAR     39  12  33 NW9       30.15R WCI  33
$$


........................KEY........................
SKY/WX - SKY CONDITION/WEATHER
TMP    - TEMPERATURE IN FAHRENHEIT
DP     - DEW POINT IN FAHRENHEIT
RH     - RELATIVE HUMIDITY IN PERCENT
WIND   - DIRECTION AND SPEED IN MILES PER HOUR (MPH)
VRB    - VARIABLE WIND DIRECTION
PRES   - MEAN SEA LEVEL PRESSURE IN INCHES OF MERCURY
         F - FALLING PRESSURE   R - RISING PRESSURE
         S - STEADY PRESSURE
VSB    - VISIBILITY IN MILES
HX     - HEAT INDEX IN FAHRENHEIT
WCI    - WIND CHILL INDEX IN FAHRENHEIT
TC     - TEMPERATURE IN CELSIUS WHICH IS ALSO KNOWN AS
         TEMPERATURE IN CENTIGRADE
AFB    - AIR FORCE BASE
         LUKE AFB IS LUKE AIR FORCE BASE
         DAVIS-MONTHAN IS DAVIS-MONTHAN AIR FORCE BASE
NAS    - NAVAL AIR STATION
         EL CENTRO NAS IS EL CENTRO NAVAL AIR STATION
N/A    - NOT AVAILABLE





USA.gov is the U.S. government's official web portal to all federal, state and local government web resources and services.